Location: *
(44.1392°N, 4.8079°E)
Time: 07:35:34
(UTC+00:00)

SL-4 R/B - Pass Details

Date: 21 June 2021
Orbit: 428 x 662 km, 51.6° (Epoch: 02 August)

Event Time Altitude Azimuth Distance (km) Brightness Sun altitude
Rises 01:13:13 0° 294° (WNW) 2,602 5.5 -19.3°
Reaches altitude 10° 01:15:45 10° 307° (NW) 1,673 4.6 -19.1°
Maximum altitude 01:18:56 25° 5° (N) 968 4.0 -18.9°
Drops below altitude 10° 01:21:57 10° 64° (ENE) 1,583 5.1 -18.7°
Sets 01:24:17 0° 78° (ENE) 2,427 5.9 -18.5°
